Location: Morlupo
(42.1333°N, 12.5000°E)
Time: 16:30:35
(UTC+00:00)

Cosmos 2151 Rocket - Pass Details

Date: 18 September 2020
Orbit: 618 x 642 km, 82.5° (Epoch: 25 October)

Event Time Altitude Azimuth Distance (km) Brightness Sun altitude
Rises 18:42:31 0° 178° (S) 2,895 6.8 -17.0°
Reaches altitude 10° 18:44:45 10° 175° (S) 1,996 5.9 -17.4°
Maximum altitude 18:49:07 63° 95° (E) 706 3.5 -18.1°
Drops below altitude 10° 18:53:34 10° 15° (NNE) 2,027 6.3 -18.9°
Sets 18:55:50 0° 12° (NNE) 2,944 7.2 -19.3°
